sat.trackr.live / text

‹ back to catalog

KSLV-II DUMMY

NORAD 52895 · 2022-065B

PAYLOAD ACTIVE UNKNOWN

§ Identity

Operator
Country
SKOR
Launch date
2022-06-21
Launch site
NSC
Launch vehicle
Mass (kg)
RCS (m²)

External: N2YO · Heavens-Above · Gunter

§ Orbital elements

Epoch: 2026-09-20T09:13:52.981536Z

Period
98.72 min
Inclination
98.2491°
Eccentricity
0.0009530
Mean motion
14.58702721 rev/d
Perigee alt
690.6 km
Apogee alt
704.1 km
Semi-major
7,075.5 km
B*
1.2724e-5
RAAN
42.4631°
Arg perigee
99.3769°
Mean anomaly
260.8508°
Rev number
22,623

§ Raw data

KSLV-II DUMMY1 52895U 22065B   26263.38464099  .00000013  00000+0  12724-4 0  99992 52895  98.2491  42.4631 0009530  99.3769 260.8508 14.58702721226235

JSON: /api/v1/satellites/52895 · /tle

For live sub-satellite position, see the globe view (requires WebGL).

§ Visibility from observer

Set your observer location to see the next 7 days of passes ≥ 10°. The values pass through the URL so the page stays shareable.

No JS? Fill the form by hand. The geolocation button needs JavaScript.